Погода в Роще

Россия / Калужская область     54°46′42″N   36°50′29″E
темп.,
°C
ветер,
м/с
пор.,
м/с
влажн.,
%
обл.,
%
осадки,
мм/ч
давл.,
гПа
погр.,
м
25 июля, вс
вс2500:00+14сз126365 0.0 101824
03:00+10ссз11764 0.0 101910
06:00+12зсз00715 0.0 102011
09:00+20св01455 0.0 1020538
12:00+24ююв113499 0.0 10202581
15:00+21юв1146100 0.0 10211138
18:00+22зюз114216 0.0 1021654
21:00+15ю22655 0.0 102111
26 июля, пн
пн2600:00+14ююз116839 0.0 102310
03:00+14ююв0166100 0.0 102310
06:00+16ююв2263100 0.0 102336
09:00+18ю1362100 0.0 1023123
12:00+21ююз245390 0.0 1024482
15:00+26з2438100 0.0 10222550
18:00+22зсз1156100 0.0 1022100
21:00+20юз116332 0.0 102211
27 июля, вт
вт2700:00+18юз227332 0.0 102344
03:00+16з228229 0.0 102341
06:00+16зсз128933 0.9 102320
09:00+23зюз116487 0.9 1022335
12:00+27юз224238 0.0 10211952
15:00+24ю115899 0.0 102011
18:00+19св258026 0.5 1020114
21:00+17ююв229141 2.1 102032
28 июля, ср
ср2800:00+17ююз239199 0.1 101943
03:00+16ююз229129 0.1 101824
06:00+16ююз2389100 0.0 101776
09:00+21ю2467100 0.0 1016342
12:00+23юз3462100 0.0 1015666
15:00+18ююв2894100 2.0 1014414
18:00+18ююв4119499 0.4 1012538
21:00+18ююв3109588 0.6 1009380
29 июля, чт
чт2900:00+18юз4997100 0.1 1008323
03:00+17з4119961 0.1 1008421
06:00+17з413950 0.0 1008462
09:00+22з511681 0.0 1008865
12:00+26зсз694687 0.0 10081939
15:00+28зсз69409 0.0 10072399
18:00+26зсз58435 0.0 10081984
21:00+19зюз35680 0.0 100874